Regional Weather Roundup
Issued by NWS

Home | Current Version | Previous Version | Text Only | Print | Product List | Glossary On
Versions: 1 2 3 4 5 6 7 8 9 10 11 12 13 14 15 16 17 18 19 20 21 22 23 24 25 26 27 28 29 30 31 32 33 34 35 36 37 38 39 40 41 42 43 44 45 46 47 48 49 50
000
ASUS43 KOAX 250210
RWRNE

WEATHER ROUNDUP FOR NEBRASKA
NATIONAL WEATHER SERVICE OMAHA NE
900 PM CDT THU JUL 24 2014

NOTES: SATELLITE DATA IS BEING USED TO AUGMENT CLOUD COVER ABOVE
       12000 FEET.
       "FAIR" INDICATES FEW OR NO CLOUDS BELOW 12,000 FEET WITH NO
       SIGNIFICANT WEATHER AND/OR OBSTRUCTIONS TO VISIBILITY.

  * THESE STATIONS DO NOT REPORT WEATHER SUCH AS RAIN...SNOW OR FOG.

NEZ001>004-019>022-054>056-250300-
NEBRASKA PANHANDLE

CITY           SKY/WX    TMP DP  RH WIND       PRES   REMARKS
SCOTTSBLUFF    MOCLDY    78  60  53 SE10      29.87F
ALLIANCE       PTCLDY    78  60  53 S13       29.87F
CHADRON        PTCLDY    88  54  31 S17       29.75F
KIMBALL        CLEAR     73  57  57 S10       29.98R
SIDNEY         PTCLDY    79  53  40 S8        29.94F
$$

NEZ057>060-069>072-079>082-250300-
SOUTHWEST NEBRASKA

CITY           SKY/WX    TMP DP  RH WIND       PRES   REMARKS
NORTH PLATTE   CLOUDY    89  50  26 NW14      29.85R
IMPERIAL       CLOUDY    80  58  46 NE5       29.90R
LEXINGTON      CLOUDY    87  72  61 S17G24    29.82S HX  93
MCCOOK         CLOUDY    89  55  31 SW7       29.84R
OGALLALA       CLOUDY    80  56  43 S13       29.87F
$$

NEZ005>010-023>029-035>040-094-250300-
NORTH CENTRAL NEBRASKA

CITY           SKY/WX    TMP DP  RH WIND       PRES   REMARKS
VALENTINE      CLOUDY    82  61  48 S16       29.74F
AINSWORTH      TSTM      85  67  54 W22G29    29.80R
BROKEN BOW     CLOUDY    88  70  55 S16G26    29.81R HX  93
O`NEILL        MOCLDY    82  65  57 SE21G28   29.80F
ORD            CLOUDY    81  69  67 SE10      29.81R
THEDFORD       CLOUDY    75  63  66 NW6       29.89R THUNDER
$$

NEZ041-046>049-061>064-073>077-083>087-250300-
SOUTH CENTRAL NEBRASKA

CITY           SKY/WX    TMP DP  RH WIND       PRES   REMARKS
GRAND ISLAND   MOCLDY    82  68  62 SE17G28   29.84S
AURORA         MOCLDY    81  68  65 SE12G21   29.86S
HASTINGS       MOCLDY    85  65  51 S13G22    29.85S
HEBRON         PTCLDY    82  63  52 S10G21    29.89S
HOLDREGE       MOCLDY    86  69  56 S16       29.83F HX  90
KEARNEY *      MOCLDY    84  70  61 SE14      29.84S
YORK           MOCLDY    77  68  73 SE15      29.88S
$$

NEZ011>018-030>034-042>045-250300-
NORTHEAST NEBRASKA

CITY           SKY/WX    TMP DP  RH WIND       PRES   REMARKS
NORFOLK        CLEAR     77  63  61 SE17      29.86S
ALBION         PTCLDY    78  64  60 SE18      29.86S
BLAIR          CLEAR     74  59  58 SE18G25   29.92F
COLUMBUS *     CLEAR     75  63  64 SE10      29.88F
FREMONT        CLEAR     77  62  58 SE17      29.91F
TEKAMAH        CLEAR     75  61  61 SE18G25   29.90F
WAYNE          CLEAR     75  64  67 SE16G22   29.87F
$$

NEZ050>053-065>068-078-088>093-250300-
SOUTHEAST NEBRASKA

CITY           SKY/WX    TMP DP  RH WIND       PRES   REMARKS
LINCOLN        PTCLDY    81  62  52 SE20      29.93R
OMAHA EPPLEY   MOCLDY    76  60  57 SE18      29.93F
BEATRICE       CLEAR     79  64  59 SE10      29.93R
FALLS CITY     CLEAR     74  62  66 SE10      29.98R
NEBRASKA CITY  PTCLDY    73  62  67 SE10G16   29.98S
PLATTSMOUTH    CLEAR     74  59  59 SE13G18   29.96F
$$

NEZ044-045-051>053-067-250300-
OMAHA AREA

CITY           SKY/WX    TMP DP  RH WIND       PRES   REMARKS
OMAHA EPPLEY   MOCLDY    76  60  57 SE18      29.93F
BLAIR          CLEAR     74  59  58 SE18G25   29.92F
FREMONT        CLEAR     77  62  58 SE17      29.91F
MILLARD        CLEAR     76  62  62 SE14      29.93F
OFFUTT AFB     CLEAR     74  62  66 SE17      29.94F
PLATTSMOUTH    CLEAR     74  59  59 SE13G18   29.96F
WAHOO          FAIR      76  62  60 SE17      29.91F
$$



USA.gov is the U.S. government's official web portal to all federal, state and local government web resources and services.